World > North America > United States > Texas

San Angelo, Texas Regional Weather

Lat: 31.45N, Lon: 100.45W
Wx Zone: TXZ072
Warning FLW WEATHER ALERT - (More Info. Click Here) Warning
Feedback

San Angelo, TX Regional Weather

Expires:201908200000;;487658
ASUS44 KSJT 192302
RWRSJT
WEST CENTRAL TEXAS REGIONAL WEATHER ROUNDUP
NATIONAL WEATHER SERVICE SAN ANGELO TX
600 PM CDT MON AUG 19 2019

NOTE: "FAIR" INDICATES FEW OR NO CLOUDS BELOW 12,000 FEET WITH NO
SIGNIFICANT WEATHER AND/OR OBSTRUCTIONS TO VISIBILITY.


TXZ049-054-064>066-071>073-076>078-098-099-113-114-127-128-139-140-
154-155-168>170-200000
...LOCATIONS ACROSS WEST CENTRAL TEXAS...
  
CITY           SKY/WX    TMP DP  RH WIND       PRES   REMARKS
SAN ANGELO     SUNNY    102  61  25 SE13      29.92F                  
ABILENE        SUNNY    101  59  24 S12G23    29.94F                  
DYESS AFB      SUNNY    101  57  22 SE9       29.93S                  
JUNCTION       SUNNY     99  62  29 S9        29.94F                  
SWEETWATER     SUNNY    100  56  23 CALM      29.99S                  
BROWNWOOD      NOT AVBL                                               
COLEMAN        CLEAR    101  58  24 SE9       29.94S                  
SONORA         SUNNY     99  61  28 E9G17     29.99S                  
OZONA          FAIR      99  54  22 SE9G16    29.97F                  
BRADY          SUNNY     97  61  30 SE8G18    29.95R                  
$$

TEXAS PANHANDLE/OKLAHOMA PANHANDLE
  
CITY           SKY/WX    TMP DP  RH WIND       PRES   REMARKS
AMARILLO       SUNNY     98  37  12 SW16      30.00R                  
BORGER         SUNNY     98  52  21 S9G20     29.97R                  
CANADIAN       SUNNY    102  58  23 S18G29    29.93R                  
DALHART        MOSUNNY   87  53  31 SE24      30.04R                  
DUMAS          LGT RAIN  84  51  32 E3        30.08R                  
GUYMON         NOT AVBL                                               
HEREFORD       CLEAR    100  44  14 SW14      30.04S                  
PAMPA          NOT AVBL                                               
PERRYTON       SUNNY     84  56  38 S21G39    29.96                   
$$

SOUTHERN PANHANDLE/SOUTH PLAINS/ROLLING PLAINS
  
CITY           SKY/WX    TMP DP  RH WIND       PRES   REMARKS
LUBBOCK        MOSUNNY  102  52  18 S13       30.00S                  
SNYDER         SUNNY    101  57  23 SE12      29.96                   
CHILDRESS      SUNNY     99  67  35 S10G20    29.92S                  
SEMINOLE       CLEAR     98  47  17 S10       30.03F                  
$$

PERMIAN BASIN
  
CITY           SKY/WX    TMP DP  RH WIND       PRES   REMARKS
MIDLAND        SUNNY    100  58  24 S15G24    29.96S                  
ODESSA         SUNNY    100  51  19 S14G22    29.98S                  
WINK           SUNNY    103  51  17 SE21      29.91S                  
$$

FAR WEST/SOUTHWEST MOUNTAINS/TRANS PECOS
  
CITY           SKY/WX    TMP DP  RH WIND       PRES   REMARKS
ALPINE         CLEAR     92  51  25 SE12      30.12R                  
DRYDEN           N/A     99  53  21 SE16G23   29.91S                  
EL PASO        PTSUNNY  101  46  15 N8        29.98F                  
FORT STOCKTON  SUNNY     97  56  25 SE15G24   29.96S                  
GUADALUPE PASS MOSUNNY   85  48  27 S22G29    30.15S                  
MARFA          MOSUNNY   89  54  30 N9        30.10S                  
PECOS          NOT AVBL                                               
$$

DALLAS/FORT WORTH METROPLEX
  
CITY           SKY/WX    TMP DP  RH WIND       PRES   REMARKS
DFW AIRPORT    MOSUNNY   99  66  33 S10       29.90S                  
FTW MEACHAM    SUNNY     98  66  34 SE13      29.90F                  
DAL-EXECUTIVE  SUNNY     99  67  35 SE10      29.91F                  
GRAND PRAIRIE  SUNNY     99  63  30 SE7       29.93S                  
ADDISON        MOSUNNY   99  64  32 SE9       29.93S                  
MESQUITE       PTCLDY    99  64  32 S8        29.93S                  
LANCASTER      CLEAR    100  66  33 SE10      29.93S                  
$$

NORTH CENTRAL TEXAS
  
CITY           SKY/WX    TMP DP  RH WIND       PRES   REMARKS
SHRMAN/DENISON CLEAR     99  72  41 S9        29.94F                  
GAINESVILLE    SUNNY     98  63  31 SE14      29.95S                  
BRIDGEPORT     CLEAR     99  64  32 SE12      29.93S                  
DENTON         SUNNY    100  68  35 S13G18    29.91F                  
WAXAHACHIE     CLEAR     99  67  35 SE5       29.94S                  
GRANBURY       CLEAR    101  63  28 E10       29.92F                  
$$

WESTERN NORTH TEXAS
  
CITY           SKY/WX    TMP DP  RH WIND       PRES   REMARKS
WICHITA FALLS  SUNNY    102  65  29 S15G22    29.88F                  
VERNON         CLEAR    105  61  23 SE13G21   29.89F                  
BRECKENRIDGE   CLEAR    102  57  22 S7        29.92S HAZE             
COMANCHE       SUNNY    100  64  30 E9        29.94F                  
$$

CENTRAL AND SOUTH CENTRAL TEXAS
  
CITY           SKY/WX    TMP DP  RH WIND       PRES   REMARKS
AUSTIN/BERGSTM MOSUNNY  100  68  35 VRB5      29.90S                  
WACO           SUNNY     98  66  34 S9        29.91F                  
HILLSBORO      NOT AVBL                                               
TEMPLE         SUNNY     99  67  35 SE9       29.93S                  
KILLEEN-GRAY   NOT AVBL                                               
FORT HOOD      NOT AVBL                                               
GEORGETOWN     MOSUNNY  100  66  32 SE8       29.94S                  
LAGO VISTA     FAIR      96  64  34 SE6       29.96S                  
SAN MARCOS     MOSUNNY  100  68  35 VRB6      29.91S                  
NEW BRAUNFELS  SUNNY    100  67  33 S8        29.89S                  
RANDOLPH AFB   MOSUNNY   99  67  35 SE10      29.91S                  
SAN ANTONIO    MOSUNNY  100  65  31 S10       29.91S                  
STINSON        SUNNY    100  58  24 S5        29.87F                  
PLEASANTON     NOT AVBL                                               
LA GRANGE      SUNNY     99  73  43 S9G16     29.89S                  
GIDDINGS       CLEAR    103  70  34 S7        29.91S                  
$$

EAST TEXAS
  
CITY           SKY/WX    TMP DP  RH WIND       PRES   REMARKS
PARIS          SUNNY     96  73  47 SE6       29.94S                  
CLARKSVILLE    NOT AVBL                                               
TYLER          MOSUNNY   98  66  34 S7        29.94S                  
LONGVIEW       SUNNY     98  73  44 SE8       29.93S                  
PALESTINE      CLEAR     96  70  42 S5        29.95S                  
NACOGDOCHES    SUNNY     98  70  40 SE7       29.95R                  
$$

TEXAS HILL COUNTRY AND EDWARDS PLATEAU
  
CITY           SKY/WX    TMP DP  RH WIND       PRES   REMARKS
LLANO          NOT AVBL                                               
HORSESHOE BAY  FAIR      99  61  28 SE7       29.94R                  
KERRVILLE      MOSUNNY   97  63  32 SE5       29.96S                  
FREDERICKSBRG  NOT AVBL                                               
ROCKSPRINGS    CLEAR     93  61  33 SE13      30.03S                  
HONDO          SUNNY     99  62  29 SE8G18    29.91S                  
UVALDE         CLEAR     99  64  31 E10G21    29.90S                  
DEL RIO        SUNNY    102  65  29 E12G21    29.85F                  
$$

SOUTHEAST TEXAS
  
CITY           SKY/WX    TMP DP  RH WIND       PRES   REMARKS
COLLEGE STN    SUNNY    100  67  33 SE6       29.91S                  
CALDWELL       CLEAR     99  68  36 E6        29.91S                  
CROCKETT       NOT AVBL                                               
BRENHAM        SUNNY     98  71  41 S9        29.92R                  
HUNTSVILLE     CLOUDY    99  71  40 E7        29.93R                  
CONROE         SUNNY     93  76  57 SE16G23   29.94R                  
HOUSTON BUSH   PTSUNNY   90  74  59 S17       29.95R                  
HOUSTON HOBBY  RAIN      82  75  79 S13       29.95                   
PERLAND        CLOUDY    86  76  71 VRB3      29.97R                  
WHARTON        PTCLDY    94  69  43 S15       29.95R                  
$$

THE UPPER TEXAS COAST
  
CITY           SKY/WX    TMP DP  RH WIND       PRES   REMARKS
ORANGE         FAIR      88  83  84 SE3       30.01R                  
PORT ARTHUR    FAIR      
85a
89  77  67 S8        29.97R                  
GALVESTON      FAIR      90  77  65 S13       29.97S                  
ANGLETON       FAIR      91  75  59 S13       29.96R                  
BAY CITY       FAIR      93  77  60 S13       29.95R                  
$$

TEXAS COASTAL BEND, RIO GRANDE PLAINS DEEP SOUTH TEXAS
  
CITY           SKY/WX    TMP DP  RH WIND       PRES   REMARKS
VICTORIA       SUNNY     95  71  45 SE18G24   29.93R                  
BEEVILLE       NOT AVBL                                               
ROCKPORT       SUNNY     90  77  65 SE14G21   29.92S                  
PORT ARANSAS   CLEAR     89  80  75 SE12      29.94S                  
PORT LAVACA    MOCLDY    94  77  56 SE16      29.94R                  
CORPUS CHRISTI MOSUNNY   92  76  59 SE21G28   29.91S                  
KINGSVILLE NAS MOSUNNY   93  75  55 SE21G32   29.89S                  
COTULLA        MOSUNNY  103  59  23 SE10      29.85F                  
LAREDO         MOSUNNY  105  65  27 SE15      29.83F                  
BROWNSVILLE    PTSUNNY   94  78  60 SE20      29.90S                  
PORT ISABEL    FAIR      91  76  61 SE22G29   29.90S                  
HEBBRONVILLE   NOT AVBL                                               
MCALLEN        MOSUNNY  100  68  35 SE16G26   29.86F                  
WESLACO        NOT AVBL                                               
FALFURRIAS     PTCLDY    99  73  43 E15G25    29.86S                  
EDINBURG       CLEAR    100  64  31 SE18      29.87R                  
$$
  

SKY/WX - Weather  TMP - Temperature  DP - Dew Point  RH - Relative Humidity
WIND - Wind Direction/Speed PRES - Barometric Pressure VSB - Visibility
WCI - Wind Chill Index E13G22 Wind - East Wind 13 mph/Gusts of 22 mph